Location: Sungai Bunut
(2.6333°N, 113.7333°E)
Time: 18:32:48
(UTC+00:00)

Envisat - Pass Details

Date: 16 October 2021
Orbit: 764 x 766 km, 98.2° (Epoch: 07 December)

Event Time Altitude Azimuth Distance (km) Brightness Sun altitude
Rises 21:08:58 0° 11° (N) 3,215 6.3 -15.6°
Reaches altitude 10° 21:11:15 10° 11° (N) 2,291 5.5 -15.0°
Maximum altitude 21:16:19 88° 283° (WNW) 768 2.9 -13.8°
Drops below altitude 10° 21:21:23 10° 193° (SSW) 2,297 5.4 -12.5°
Sets 21:23:41 0° 192° (SSW) 3,225 6.2 -12.0°
